Wind_Speed
48 48 49 49 49 50 49 48 48 48 48 48 47 48 48 48 48 49 50 49 50 50 50 49 49 50 49 49 48 49 49 49 49 47 47 46 46 46 45 45 45 44 44
46 47 48 49 49 50 50 49 49 49 50 49 49 49 49 49 49 50 50 50 51 51 51 50 50 50 50 51 50 50 50 50 49 48 48 48 48 47 46 46 46 46 46
44 44 46 47 48 50 51 51 50 50 51 51 51 50 50 50 50 51 51 52 52 52 52 52 52 51 51 51 51 51 51 51 50 50 50 49 49 49 49 49 49 48 48
42 42 44 45 46 48 50 50 50 51 51 51 52 51 51 51 51 52 52 52 52 52 53 53 53 51 51 51 52 52 52 52 52 52 51 51 51 50 51 50 50 50 49
40 41 42 43 45 46 47 48 49 50 50 50 51 51 51 51 51 52 53 53 53 53 54 54 53 52 50 51 51 52 53 52 52 52 52 52 52 52 52 52 52 51 51
40 40 41 42 42 43 45 46 46 47 48 48 49 51 51 51 51 52 53 53 54 54 54 53 53 52 52 51 52 52 53 53 52 53 53 53 54 54 54 54 53 53 52
39 40 41 41 42 43 43 45 46 46 46 46 47 48 49 50 51 51 53 53 54 53 53 54 53 52 52 52 53 54 54 53 54 55 54 54 54 55 55 55 54 54 53
39 40 40 41 42 43 44 44 44 44 44 44 45 47 47 49 49 50 51 52 52 52 53 53 53 53 52 53 53 53 54 54 55 55 54 54 55 55 56 55 55 55 55
39 40 41 42 42 43 43 44 45 45 45 45 45 46 47 47 47 48 49 50 51 52 52 51 52 52 52 52 52 52 53 53 54 55 54 54 54 55 56 56 55 55 55
36 38 39 41 42 42 41 42 42 43 44 44 44 45 45 45 47 48 48 50 50 52 51 50 51 52 52 52 52 52 52 52 52 53 53 53 54 55 55 55 55 55 55
34 36 37 38 39 39 39 40 41 41 41 42 43 42 42 43 45 46 46 47 48 50 50 49 49 50 51 52 53 52 51 51 52 52 53 53 54 54 54 54 55 55 55
32 33 34 35 36 37 38 39 39 40 40 41 41 41 41 42 42 43 44 45 46 47 48 48 48 48 49 49 51 51 51 50 51 51 52 52 53 53 53 53 54 55 55
30 31 31 32 33 35 35 35 36 37 38 39 39 39 40 40 41 42 42 43 44 45 45 46 47 47 48 47 48 49 49 49 50 51 51 51 52 53 53 54 54 54 54
29 30 30 30 31 32 32 33 33 35 36 36 37 37 38 40 40 40 41 42 43 43 44 44 45 45 46 46 46 47 48 48 48 48 48 50 52 53 53 53 54 54 54
28 28 29 29 30 30 31 31 32 33 34 35 35 36 36 37 38 39 39 40 41 41 42 43 43 43 43 44 45 47 47 47 47 46 46 47 49 50 51 52 53 53 53
27 27 27 28 29 30 30 31 32 32 33 34 34 34 35 36 36 37 37 38 40 40 41 41 41 41 42 42 43 44 45 45 46 45 45 46 47 48 49 50 51 52 52
25 25 26 26 27 27 28 29 30 31 32 33 33 33 34 35 36 36 36 37 38 39 39 40 40 40 41 42 43 43 44 45 46 46 45 45 46 47 48 49 50 50 50
24 24 25 25 25 26 27 27 28 29 30 32 32 32 32 33 34 35 36 37 37 38 38 38 38 39 41 42 42 43 44 44 44 44 44 44 45 46 46 47 48 48 48
25 24 25 26 26 26 25 26 26 26 27 28 29 29 30 31 32 34 35 35 36 36 37 37 38 38 38 39 40 41 41 41 42 43 43 43 43 44 44 45 45 46 47
24 24 24 24 24 24 24 24 24 24 24 25 26 27 28 29 30 32 33 34 35 35 35 36 37 37 37 36 37 39 40 40 40 41 41 41 41 42 43 43 44 45 45
23 23 23 23 23 23 23 23 22 22 23 24 25 26 27 28 29 30 31 32 32 33 34 34 35 36 36 36 36 37 38 38 39 39 40 40 40 41 41 42 43 44 44
22 21 21 21 21 21 21 21 22 22 23 23 24 25 26 27 28 29 29 31 32 33 34 34 34 35 34 35 35 35 35 36 37 38 38 39 39 40 41 41 42 43 44
21 21 20 20 20 20 21 21 21 20 20 21 22 23 24 25 26 27 28 29 30 31 33 33 34 35 34 34 34 34 34 35 37 37 38 38 38 38 39 40 41 42 43
21 21 20 20 20 19 19 19 20 21 21 21 22 22 23 24 24 26 27 27 28 29 30 31 31 32 34 34 34 34 35 35 35 36 37 37 38 38 39 39 40 40 40
21 21 20 20 20 20 20 20 20 21 21 21 22 22 22 23 24 25 26 27 28 29 29 30 31 31 32 33 34 34 34 34 35 35 36 36 36 36 37 38 38 39 39
20 21 21 21 21 21 21 21 21 21 20 21 21 22 22 23 24 25 26 28 28 29 30 30 31 31 31 32 33 33 33 33 33 34 34 35 35 36 36 37 37 37 37
Wind_Direction
256 255 255 254 253 252 251 251 250 250 250 249 249 248 247 247 248 248 248 248 247 247 248 248 249 247 244 245 244 244 244 246 247 248 248 249 250 250 251 251 250 249 250
255 255 254 253 252 251 251 251 251 250 250 250 249 248 248 248 248 249 249 248 248 248 248 248 247 245 244 244 245 244 245 246 247 247 247 248 249 249 250 250 250 250 251
256 255 253 252 252 251 251 251 251 251 251 251 250 249 249 249 249 249 249 249 249 248 248 247 246 245 245 245 245 246 246 246 247 248 248 248 248 248 249 250 251 251 251
255 253 252 251 252 252 252 252 252 252 251 251 251 250 249 249 249 249 249 249 249 248 248 246 245 244 246 246 246 247 248 248 249 249 249 248 248 249 249 250 251 251 252
254 254 253 252 253 254 253 252 251 251 252 252 251 250 250 250 250 250 249 250 250 249 248 246 244 244 246 246 247 248 248 249 249 250 250 249 249 249 250 250 252 252 253
255 254 254 253 254 254 253 252 252 252 252 253 252 251 251 250 250 251 250 250 250 249 247 245 244 245 247 247 248 248 249 250 251 251 251 251 251 250 251 251 252 252 253
255 255 255 254 254 254 254 254 254 253 254 254 254 253 252 251 251 251 250 250 249 248 246 245 244 246 249 248 248 248 248 249 251 251 251 251 252 252 251 252 252 253 253
256 256 256 256 257 256 256 256 256 256 256 256 255 253 253 253 252 251 250 248 247 246 245 244 245 247 248 248 249 248 249 249 250 251 251 251 251 251 251 252 253 253 254
258 258 258 258 258 258 257 257 257 257 257 256 256 255 254 253 251 250 249 248 247 246 244 244 245 246 249 249 248 249 250 250 250 250 251 252 251 251 251 252 253 253 254
261 261 260 259 259 259 259 257 257 258 257 257 257 256 254 252 251 250 249 249 247 246 244 245 246 247 248 248 249 249 249 250 251 251 251 252 252 252 252 252 253 253 254
265 264 263 261 261 260 259 257 257 257 256 257 256 255 253 251 250 250 249 249 248 246 245 246 246 246 246 248 249 249 250 251 251 251 251 252 252 252 252 253 253 253 255
267 267 265 264 262 261 259 258 257 256 257 257 255 255 253 252 251 250 250 249 247 245 245 245 246 247 247 249 249 249 250 251 251 251 251 251 252 252 253 253 253 254 255
268 267 266 265 263 262 261 259 258 258 258 258 256 255 253 251 250 250 250 249 247 246 246 246 246 248 249 250 251 251 251 251 251 251 251 251 251 253 253 253 253 254 256
267 267 266 266 264 263 262 261 260 259 258 257 256 255 253 251 250 250 249 248 246 246 246 246 246 248 249 249 250 251 251 251 252 253 252 252 251 252 253 253 253 254 255
268 267 267 265 263 262 262 261 260 259 259 257 256 255 254 251 251 251 249 248 246 244 245 245 247 248 249 249 251 253 252 251 251 253 254 253 252 252 253 253 253 253 254
268 267 267 267 264 262 261 260 261 260 259 257 256 255 253 251 250 250 249 249 246 245 245 245 248 250 250 250 251 253 253 253 253 254 256 255 254 253 253 254 254 254 255
271 268 266 265 264 262 261 261 261 260 258 256 255 254 254 253 251 250 249 249 247 247 247 247 249 250 249 250 252 253 254 255 256 256 256 256 255 255 255 255 256 257 257
271 269 267 266 265 263 262 262 261 259 258 256 254 253 253 252 250 249 250 250 248 247 248 248 249 250 250 251 252 253 255 255 255 256 256 257 256 256 256 256 257 257 257
270 269 268 266 265 264 264 264 263 261 259 257 254 251 250 250 249 249 249 250 249 248 249 250 250 249 250 251 253 253 254 255 254 254 254 255 255 255 255 255 256 257 257
272 270 267 265 263 263 264 263 262 259 257 254 252 250 249 250 250 249 249 249 248 247 248 249 249 249 250 251 253 253 254 254 254 254 254 255 255 255 255 256 257 258 259
272 270 268 267 265 264 263 262 261 259 258 256 251 248 247 248 248 249 249 247 247 247 247 248 249 250 252 254 254 254 254 253 252 253 254 254 255 255 256 257 259 259 259
271 269 269 268 266 264 262 262 264 263 260 257 251 250 250 251 250 249 249 248 248 248 247 248 249 251 253 254 255 254 254 252 252 252 253 254 254 255 256 258 260 260 260
269 269 269 268 266 265 264 263 262 261 261 259 256 253 252 251 251 250 250 249 250 249 249 250 252 252 251 252 253 255 255 254 253 253 253 254 254 256 257 260 261 261 261
267 266 266 266 265 266 265 263 262 262 262 261 260 257 255 253 251 251 251 250 251 251 252 253 253 252 252 253 253 254 254 254 253 253 254 254 255 256 258 260 262 262 262
266 264 263 263 263 264 264 264 264 264 263 262 261 260 260 257 256 255 254 253 252 253 254 254 254 254 254 253 253 253 252 252 252 252 254 254 255 257 259 261 262 262 262
269 266 264 262 262 261 262 263 263 263 263 263 262 262 262 260 259 257 256 255 255 255 253 253 253 253 254 253 252 252 252 253 253 254 255 256 256 257 259 261 262 262 262
Height
5577 5580 5582 5585 5587 5590 5593 5596 5599 5601 5604 5607 5610 5613 5616 5619 5622 5625 5628 5631 5634 5637 5641 5644 5647 5650 5654 5658 5662 5665 5668 5672 5676 5681 5684 5687 5689 5692 5695 5697 5699 5702 5704
5563 5566 5568 5571 5573 5576 5579 5582 5585 5588 5590 5593 5596 5599 5603 5606 5608 5611 5614 5617 5621 5624 5627 5631 5634 5637 5641 5645 5649 5652 5656 5659 5663 5667 5671 5674 5677 5680 5682 5685 5687 5689 5692
5550 5552 5554 5557 5559 5562 5565 5568 5571 5574 5576 5579 5582 5586 5589 5592 5595 5597 5600 5604 5607 5610 5614 5617 5621 5624 5628 5632 5635 5639 5643 5646 5650 5654 5658 5661 5664 5667 5670 5672 5675 5677 5680
5537 5539 5541 5544 5546 5549 5551 5554 5556 5559 5562 5565 5568 5571 5574 5577 5580 5583 5586 5589 5593 5596 5599 5603 5607 5612 5615 5618 5622 5626 5629 5632 5636 5640 5644 5647 5651 5654 5656 5659 5662 5664 5667
5526 5528 5530 5532 5534 5536 5538 5540 5542 5545 5548 5550 5553 5556 5559 5563 5566 5569 5572 5575 5578 5582 5585 5589 5594 5598 5601 5605 5608 5612 5615 5618 5621 5625 5629 5633 5636 5640 5643 5646 5648 5651 5654
5515 5517 5518 5520 5522 5523 5525 5527 5529 5531 5533 5536 5539 5542 5545 5548 5551 5554 5557 5560 5564 5567 5571 5576 5580 5584 5588 5591 5594 5598 5601 5604 5608 5611 5615 5619 5622 5625 5628 5630 5634 5637 5641
5504 5506 5507 5508 5510 5511 5513 5514 5516 5518 5520 5522 5525 5527 5531 5534 5537 5539 5542 5545 5549 5553 5557 5561 5566 5570 5573 5576 5580 5583 5587 5590 5594 5597 5600 5604 5607 5610 5613 5617 5619 5622 5626
5493 5495 5496 5497 5498 5499 5500 5502 5504 5505 5508 5510 5512 5514 5517 5520 5522 5525 5527 5530 5534 5539 5543 5547 5552 5556 5559 5562 5565 5568 5571 5575 5579 5583 5587 5590 5592 5594 5598 5601 5604 5608 5612
5483 5484 5485 5485 5486 5487 5488 5490 5491 5493 5495 5497 5499 5501 5503 5506 5508 5511 5513 5516 5520 5525 5529 5533 5538 5542 5545 5548 5550 5554 5558 5561 5563 5567 5571 5574 5576 5579 5583 5586 5590 5593 5597
5473 5473 5473 5474 5474 5475 5476 5478 5479 5481 5482 5484 5486 5488 5490 5493 5495 5497 5500 5503 5507 5512 5516 5520 5524 5527 5531 5533 5535 5539 5543 5547 5549 5552 5555 5558 5561 5564 5568 5571 5575 5579 5582
5464 5463 5463 5463 5463 5464 5465 5466 5467 5469 5470 5472 5474 5476 5477 5480 5482 5484 5487 5489 5494 5498 5502 5506 5510 5514 5517 5519 5522 5525 5529 5532 5534 5537 5540 5543 5546 5550 5553 5557 5560 5564 5568
5455 5454 5453 5453 5453 5453 5454 5455 5456 5457 5458 5460 5462 5463 5465 5467 5470 5472 5475 5477 5481 5485 5489 5493 5497 5500 5503 5506 5508 5512 5515 5517 5519 5522 5525 5529 5532 5536 5539 5543 5546 5549 5553
5446 5445 5445 5444 5443 5443 5444 5444 5445 5446 5447 5449 5450 5451 5453 5456 5458 5460 5463 5466 5469 5472 5477 5480 5484 5487 5490 5493 5496 5498 5500 5502 5505 5508 5511 5515 5519 5522 5525 5528 5531 5534 5538
5438 5437 5436 5435 5435 5434 5434 5435 5435 5436 5437 5437 5439 5441 5443 5445 5447 5449 5452 5454 5458 5460 5464 5468 5471 5474 5477 5480 5483 5484 5486 5489 5492 5495 5498 5501 5504 5507 5510 5514 5517 5520 5523
5430 5428 5427 5427 5426 5426 5426 5426 5426 5426 5426 5428 5429 5431 5433 5435 5437 5439 5440 5443 5446 5449 5452 5455 5459 5462 5465 5467 5470 5472 5474 5476 5479 5482 5485 5488 5490 5493 5497 5500 5503 5506 5509
5421 5420 5419 5419 5418 5418 5418 5418 5417 5418 5418 5419 5420 5421 5423 5425 5427 5428 5431 5433 5436 5439 5442 5445 5448 5450 5453 5456 5458 5460 5462 5464 5467 5470 5472 5475 5477 5480 5483 5487 5489 5492 5495
5413 5413 5412 5411 5410 5410 5410 5410 5410 5410 5409 5410 5411 5412 5414 5415 5417 5419 5421 5424 5427 5429 5432 5435 5437 5439 5442 5444 5447 5449 5451 5453 5455 5457 5459 5462 5464 5467 5470 5473 5476 5478 5481
5406 5405 5404 5404 5403 5403 5402 5402 5402 5402 5402 5402 5402 5403 5405 5406 5408 5410 5412 5414 5417 5419 5421 5424 5426 5428 5430 5433 5435 5437 5439 5441 5443 5445 5447 5449 5451 5454 5456 5459 5462 5464 5467
5398 5397 5397 5396 5396 5395 5395 5394 5394 5394 5393 5394 5394 5395 5396 5398 5399 5401 5403 5405 5407 5409 5412 5414 5416 5418 5420 5422 5424 5426 5427 5429 5431 5433 5435 5437 5439 5441 5444 5446 5449 5451 5453
5390 5390 5389 5389 5388 5388 5387 5387 5387 5386 5386 5386 5387 5388 5389 5390 5391 5393 5394 5396 5398 5400 5402 5404 5406 5408 5410 5412 5413 5414 5416 5418 5419 5421 5423 5425 5427 5429 5432 5434 5436 5438 5440
5383 5383 5382 5382 5381 5381 5380 5380 5380 5380 5379 5380 5380 5380 5381 5382 5383 5384 5386 5387 5389 5391 5393 5395 5397 5399 5400 5402 5403 5404 5405 5406 5408 5410 5412 5414 5416 5418 5420 5422 5424 5425 5427
5376 5375 5375 5375 5374 5374 5374 5374 5373 5373 5373 5373 5373 5374 5374 5375 5376 5377 5378 5379 5381 5382 5384 5386 5388 5390 5391 5392 5393 5394 5395 5396 5398 5400 5401 5403 5405 5407 5409 5410 5412 5413 5414
5368 5368 5368 5368 5368 5368 5367 5367 5367 5367 5366 5366 5366 5367 5367 5368 5369 5370 5371 5372 5373 5374 5376 5377 5379 5380 5382 5383 5384 5385 5386 5387 5389 5390 5392 5393 5395 5396 5398 5399 5400 5401 5402
5361 5361 5361 5361 5361 5361 5361 5361 5360 5360 5360 5360 5360 5360 5360 5361 5361 5362 5363 5364 5365 5366 5367 5368 5369 5371 5372 5374 5375 5376 5377 5378 5379 5381 5382 5384 5385 5386 5387 5388 5389 5390 5390
5354 5354 5354 5354 5354 5354 5354 5354 5354 5354 5354 5353 5353 5353 5353 5354 5354 5355 5355 5356 5357 5358 5358 5359 5360 5361 5363 5364 5365 5366 5367 5368 5369 5371 5372 5374 5375 5376 5377 5377 5378 5378 5379
5347 5346 5346 5347 5347 5347 5347 5347 5347 5347 5347 5347 5347 5347 5347 5347 5347 5347 5348 5348 5349 5349 5350 5351 5352 5352 5353 5354 5356 5357 5358 5359 5360 5361 5362 5363 5364 5365 5366 5366 5367 5367 5368